Showing default

OV1-14, 3174

Orbit data source: Space-Track

OV1-14, 3174 is a payload satellite owned by USAF OAR (US) that was launched on Sat, 06 Apr 1968 UTC via an ATLAS F launch vehicle from the Air Force Western Test Range (AFWTR). Payload-class satellites include a variety of spacecraft equipped with specific instruments for various scientific and technological missions. These include communications satellites like Starlink; space stations such as the ISS; scientific satellites like the Hubble; Earth observation satellites from companies like Planet Labs, Umbra, and HawkEye 360; GPS; miniature CubeSats for education and research; and military/defense satellites.

Loading next visibility...
Identifier
3174, 1968-026B
Orbit
Active
Country
Flag of USUS
Related business
Manufacturer
GD/Convair
Mission
Spacecraft
Bus & Motor
OV1, Unknown motor
Mass
101 kg wet, 101 kg dry
Launch date (UTC)
1968-04-06 (58 years ago)
Launch vehicle
ATLAS F
Launch site
Air Force Western Test Range (AFWTR)
Object type
Payload
Rocket body
Debris
Shape & HBR
Unknown
Radar Cross Section
Medium (>0.1 m² and <1 m²)

Expand to show TLE details & history
Last TLE update: 8 hours ago

TLE from 8 hours ago
0 OV1-14
1  3174U 68026B   26127.59906475 -.00000460  00000-0 -70946-3 0  9991
2  3174  99.9818 347.4073 4012065 330.8659  21.9693  6.96760940473495
Epoch: 2026-05-07T14:22Z
TLE epoch observation values (Epoch: 2026-05-07T14:22:39.194Z)
Latitude
22.32752°
Longitude
-97.82261°
Altitude
1,408.333 km
Speed
8.247 km/s
True Right ascension
22h 53m 08s
True Declination
22° 13' 01"
Sunlit
Object was in daylight at epoch
Visualization orbit readout
Latitude
Unknown
Longitude
Unknown
Altitude
Unknown
Speed
Unknown
Apparent Right ascension
Unknown
Apparent Declination
Unknown
Sunlit
N/A
Visualization observer readout
Local Sidereal Time
06:01:22
Azimuth
Unknown
Elevation
Unknown
Doppler factor
Unknown
Orbital elements
Apogee altitude
9,843.597 km
Perigee altitude
554.081 km
Semi-major axis
11,576.976 km
Eccentricity
0.40121
Inclination
99.9818°
RAAN
347.4073°
Arg. of periapsis
330.8659°
True anomaly
51.8111°
Mean anomaly
21.9693°
Eccentric anomaly
35.22976°
Mean motion
1.74241 °/min
Orbital period
206.61 mins
BSTAR
-0.00070946
Loading maneuver chart data...
Computing Atmospheric mass density...
Loading historical data...
Loading historical data...
Loading historical data...
Loading historical data...
Loading historical data...
Loading historical data...
Loading historical data...
Other satellites on launch #26 in the year 1968 (1968-04-06 UTC)

Documentation

Showing up to 5 results
|